Time,TemperatureF,DewpointF,PressureIn,WindDirection,WindDirectionDegrees,WindSpeedMPH,WindSpeedGustMPH,Humidity,HourlyPrecipIn,Conditions,Clouds,dailyrainin,SoftwareType,DateUTC
2013-06-07 00:00:00,54.3,53.5,29.86,North,0,1.6,2.2,97,0.00,,,0.37,pywws,2013-06-07 04:00:00,
2013-06-07 00:30:00,54.1,53.3,29.85,NW,315,0.0,0.0,97,0.00,,,0.00,pywws,2013-06-07 04:30:00,
2013-06-07 01:00:00,54.3,53.5,29.87,North,0,0.0,1.6,97,0.00,,,0.00,pywws,2013-06-07 05:00:00,
2013-06-07 01:30:00,54.3,53.5,29.87,North,0,0.0,0.0,97,0.00,,,0.00,pywws,2013-06-07 05:30:00,
2013-06-07 02:00:00,54.5,53.7,29.86,North,0,0.0,0.0,97,0.00,,,0.00,pywws,2013-06-07 06:00:00,
2013-06-07 02:30:00,54.7,53.8,29.86,North,0,0.0,0.0,97,0.00,,,0.00,pywws,2013-06-07 06:30:00,
2013-06-07 03:00:00,54.5,53.7,29.85,West,270,0.0,0.7,97,0.00,,,0.00,pywws,2013-06-07 07:00:00,
2013-06-07 03:30:00,54.5,53.7,29.85,North,0,0.0,1.6,97,0.00,,,0.00,pywws,2013-06-07 07:30:00,
2013-06-07 04:00:00,54.3,53.5,29.85,North,0,0.0,0.0,97,0.00,,,0.00,pywws,2013-06-07 08:00:00,
2013-06-07 04:30:00,54.5,53.7,29.85,North,0,0.0,0.0,97,0.00,,,0.00,pywws,2013-06-07 08:30:00,
2013-06-07 05:00:00,54.3,53.5,29.85,North,0,0.7,1.6,97,0.00,,,0.00,pywws,2013-06-07 09:00:00,
2013-06-07 05:30:00,54.3,53.5,29.85,North,0,0.0,0.0,97,0.00,,,0.00,pywws,2013-06-07 09:30:00,
2013-06-07 06:00:00,54.3,53.5,29.85,North,0,0.0,0.0,97,0.01,,,0.01,pywws,2013-06-07 10:00:00,
2013-06-07 06:30:00,54.1,53.3,29.86,North,0,0.0,0.0,97,0.01,,,0.01,pywws,2013-06-07 10:30:00,
2013-06-07 07:00:00,54.1,53.3,29.86,North,0,0.0,0.0,97,0.00,,,0.01,pywws,2013-06-07 11:00:00,
2013-06-07 07:30:00,54.3,53.5,29.87,North,0,0.7,1.6,97,0.00,,,0.01,pywws,2013-06-07 11:30:00,
2013-06-07 08:00:00,54.7,53.8,29.87,North,0,0.0,0.0,97,0.00,,,0.01,pywws,2013-06-07 12:00:00,
2013-06-07 08:30:00,54.9,54.0,29.87,North,0,0.0,0.7,97,0.00,,,0.01,pywws,2013-06-07 12:30:00,
2013-06-07 09:00:00,54.9,54.0,29.88,North,0,0.0,0.7,97,0.00,,,0.01,pywws,2013-06-07 13:00:00,
2013-06-07 09:30:00,54.9,54.0,29.88,North,0,0.0,0.0,97,0.00,,,0.01,pywws,2013-06-07 13:30:00,
2013-06-07 10:00:00,54.9,54.0,29.88,North,0,0.7,2.2,97,0.00,,,0.01,pywws,2013-06-07 14:00:00,
2013-06-07 10:30:00,55.2,54.4,29.87,North,0,0.0,0.0,97,0.00,,,0.01,pywws,2013-06-07 14:30:00,
2013-06-07 11:00:00,56.1,55.8,29.87,North,0,0.0,0.0,99,0.00,,,0.01,pywws,2013-06-07 15:00:00,
2013-06-07 11:30:00,56.1,55.6,29.88,North,0,0.7,2.2,98,0.00,,,0.01,pywws,2013-06-07 15:30:00,
2013-06-07 12:00:00,56.5,55.6,29.88,North,0,0.0,0.0,97,0.00,,,0.01,pywws,2013-06-07 16:00:00,
2013-06-07 12:30:00,56.5,55.6,29.87,North,0,0.0,0.0,97,0.00,,,0.01,pywws,2013-06-07 16:30:00,
2013-06-07 13:00:00,56.3,55.7,29.87,North,0,0.0,0.7,98,0.00,,,0.01,pywws,2013-06-07 17:00:00,
2013-06-07 13:30:00,57.2,56.1,29.86,North,0,0.7,2.2,96,0.00,,,0.01,pywws,2013-06-07 17:30:00,
2013-06-07 14:00:00,58.5,56.7,29.85,North,0,0.0,2.2,94,0.00,,,0.01,pywws,2013-06-07 18:00:00,
2013-06-07 14:30:00,58.8,55.9,29.86,North,0,1.6,2.2,90,0.00,,,0.01,pywws,2013-06-07 18:30:00,
2013-06-07 15:00:00,60.3,56.1,29.86,West,270,0.0,0.0,86,0.00,,,0.01,pywws,2013-06-07 19:00:00,
2013-06-07 15:30:00,59.9,55.1,29.86,North,0,1.6,3.1,84,0.00,,,0.01,pywws,2013-06-07 19:30:00,
2013-06-07 16:00:00,59.4,54.8,29.86,North,0,1.6,3.1,85,0.00,,,0.01,pywws,2013-06-07 20:00:00,
2013-06-07 16:30:00,57.0,53.8,29.86,North,0,0.7,1.6,89,0.00,,,0.01,pywws,2013-06-07 20:30:00,
2013-06-07 17:00:00,57.2,54.6,29.86,North,0,0.0,0.0,91,0.00,,,0.01,pywws,2013-06-07 21:00:00,
2013-06-07 17:30:00,57.9,55.3,29.86,NW,315,0.0,0.0,91,0.00,,,0.01,pywws,2013-06-07 21:30:00,
2013-06-07 18:00:00,57.7,54.8,29.85,North,0,0.7,0.7,90,0.00,,,0.01,pywws,2013-06-07 22:00:00,
2013-06-07 18:30:00,57.4,54.5,29.86,North,0,0.0,0.0,90,0.00,,,0.01,pywws,2013-06-07 22:30:00,
2013-06-07 19:00:00,57.2,54.0,29.86,North,0,0.7,1.6,89,0.00,,,0.01,pywws,2013-06-07 23:00:00,
2013-06-07 19:30:00,57.0,54.1,29.87,North,0,0.0,0.0,90,0.00,,,0.01,pywws,2013-06-07 23:30:00,
2013-06-07 20:00:00,56.3,54.0,29.87,West,270,0.0,1.6,92,0.00,,,0.01,pywws,2013-06-08 00:00:00,
2013-06-07 20:30:00,56.5,54.8,29.88,West,270,0.0,0.0,94,0.00,,,0.01,pywws,2013-06-08 00:30:00,
2013-06-07 21:00:00,56.1,54.7,29.88,West,270,0.0,0.0,95,0.00,,,0.01,pywws,2013-06-08 01:00:00,
2013-06-07 21:30:00,55.9,54.8,29.89,North,0,0.0,0.0,96,0.00,,,0.01,pywws,2013-06-08 01:30:00,
2013-06-07 22:00:00,55.9,55.1,29.89,SW,225,0.0,0.0,97,0.00,,,0.01,pywws,2013-06-08 02:00:00,
2013-06-07 22:30:00,55.9,55.7,29.90,North,0,0.0,0.0,99,0.00,,,0.01,pywws,2013-06-08 02:30:00,
2013-06-07 23:00:00,55.9,55.7,29.90,West,270,0.0,0.0,99,0.00,,,0.01,pywws,2013-06-08 03:00:00,
2013-06-07 23:30:00,56.3,56.0,29.90,North,0,0.0,0.0,99,0.00,,,0.01,pywws,2013-06-08 03:30:00,